Flag for U.S.A. Weather past 2 weeks in Santa Barbara, California, U.S.A.

Now
56 °F

Mostly cloudy.


Feels Like: 56 °F
Forecast: 52 / 64 °F
Wind: 3 mph from North

Location: Santa Barbara Municipal Airport

Current Time: Jan 27, 2015 at 3:33:54 AM

Latest Report: Jan 27, 2015 at 2:53 AM


Visibility: 10 mi

Pressure: 30.11 "Hg

Humidity: 93%

Dew point: 54 °F

Location of Santa BarbaraLocation

Historic Weather in Santa Barbara — Graph

°F

Santa Barbara temperature yesterday

Maximum temperature yesterday: 74 °F (at 10:53 AM)
Minimum temperature yesterday: 51 °F (at 3:53 AM)
Average temperature yesterday: 62 °F

Past Weeks' High & Low Weather Summary

 TemperatureHumidityPressure
High79 °F (Jan 25, 1:53 PM)100% (Jan 19, 3:53 AM)30.27 "Hg (Jan 19, 3:53 AM)
Low41 °F (Jan 24, 3:53 AM)16% (Jan 25, 12:53 PM)29.92 "Hg (Jan 20, 5:53 PM)
Average56 °F73%30.11 "Hg
* Reported Jan 12 1:53 AM — Jan 27 1:53 AM, Santa Barbara, Weather by CustomWeather, © 2014

Note: Actual official high and low records may vary slightly from our data, if they occured in-between our weather recording intervals... More about our weather records

Advertising

Santa Barbara weather history for previous 24 hours

 ConditionsComfort  
Time TempWeatherWind HumidityBarometerVisibility
1:53 AM
Jan 27
57 °FLight rain. Overcast.No wind93%30.10 "Hg10 mi
12:53 AM56 °FMostly cloudy.3 mph90%30.09 "Hg10 mi
11:53 PM
Jan 26
58 °FOvercast.7 mph90%30.10 "Hg10 mi
10:53 PM58 °FOvercast.6 mph93%30.09 "Hg10 mi
9:53 PM59 °FLight rain. Mostly cloudy.No wind87%30.08 "Hg8 mi
8:53 PM62 °FLight rain. Overcast.9 mph75%30.08 "Hg10 mi
7:53 PM63 °FOvercast.6 mph68%30.05 "Hg10 mi
6:53 PM65 °FPassing clouds.8 mph51%30.03 "Hg10 mi
5:53 PM65 °FPassing clouds.8 mph61%30.02 "Hg10 mi
4:53 PM68 °FMostly cloudy.13 mph45%30.01 "Hg10 mi
3:53 PM70 °FOvercast.8 mph37%29.98 "Hg10 mi
2:53 PM72 °FOvercast.5 mph37%29.96 "Hg10 mi
1:53 PM72 °FPassing clouds.6 mph29%29.94 "Hg10 mi
12:53 PM70 °FOvercast.No wind42%29.96 "Hg10 mi
11:53 AM71 °FPartly sunny.5 mph44%29.97 "Hg10 mi
10:53 AM74 °FScattered clouds.No wind31%29.98 "Hg10 mi
9:53 AM70 °FScattered clouds.No wind38%30.00 "Hg10 mi
8:53 AM60 °FSunny.No wind65%29.99 "Hg10 mi
7:53 AM55 °FOvercast.5 mph69%29.99 "Hg10 mi
6:53 AM51 °FClear.3 mph77%29.98 "Hg10 mi
5:53 AM52 °FClear.No wind72%29.95 "Hg10 mi
4:53 AM53 °FClear.No wind69%29.94 "Hg10 mi
3:53 AM51 °FClear.No wind74%29.96 "Hg10 mi
Weather by CustomWeather, © 2014

See weather overviewHow to use our weather pages